Time,TemperatureF,DewpointF,PressureIn,WindDirection,WindDirectionDegrees,WindSpeedMPH,WindSpeedGustMPH,Humidity,HourlyPrecipIn,Conditions,Clouds,dailyrainin,SolarRadiationWatts/m^2,SoftwareType,DateUTC
2013-05-22 00:00:00,69.8,68.9,30.03,North,0,0.0,0.0,97,0.00,CLR,,0.00,0.0,WeatherDisplay:10.37,2013-05-21 14:00:00,
2013-05-22 00:05:00,69.4,69.1,30.03,North,0,0.0,0.0,99,0.00,CLR,,0.00,0.0,WeatherDisplay:10.37,2013-05-21 14:05:00,
2013-05-22 00:10:00,69.6,69.3,30.02,North,0,0.0,0.0,99,0.00,CLR,,0.00,0.0,WeatherDisplay:10.37,2013-05-21 14:10:00,
2013-05-22 00:15:00,69.6,69.3,30.02,North,0,0.0,0.0,99,0.00,CLR,,0.00,0.0,WeatherDisplay:10.37,2013-05-21 14:15:00,
2013-05-22 00:20:00,70.0,69.4,30.02,NE,41,0.0,6.0,98,0.00,CLR,,0.00,0.0,WeatherDisplay:10.37,2013-05-21 14:20:00,
2013-05-22 00:25:00,70.0,69.4,30.02,NE,55,0.0,1.0,98,0.00,CLR,,0.00,0.0,WeatherDisplay:10.37,2013-05-21 14:25:00,
2013-05-22 00:30:00,70.0,69.4,30.02,NE,35,0.0,0.0,98,0.00,CLR,,0.00,0.0,WeatherDisplay:10.37,2013-05-21 14:30:00,
2013-05-22 00:35:00,70.0,69.4,30.02,NNE,25,1.0,3.0,98,0.00,CLR,,0.00,0.0,WeatherDisplay:10.37,2013-05-21 14:35:00,
2013-05-22 00:40:00,70.0,69.4,30.02,NE,35,0.0,3.0,98,0.00,CLR,,0.00,0.0,WeatherDisplay:10.37,2013-05-21 14:40:00,
2013-05-22 00:45:00,70.0,69.4,30.01,NE,45,0.0,1.0,98,0.00,CLR,,0.00,0.0,WeatherDisplay:10.37,2013-05-21 14:45:00,
2013-05-22 00:50:00,70.0,69.4,30.01,NE,53,0.0,1.0,98,0.00,CLR,,0.00,0.0,WeatherDisplay:10.37,2013-05-21 14:50:00,
2013-05-22 00:55:00,70.0,69.1,30.01,NE,52,0.0,0.0,97,0.00,CLR,,0.00,0.0,WeatherDisplay:10.37,2013-05-21 14:55:00,
2013-05-22 01:05:00,70.0,69.1,30.01,NE,45,0.0,0.0,97,0.00,CLR,,0.00,0.0,WeatherDisplay:10.37,2013-05-21 15:05:00,
2013-05-22 01:10:00,70.0,69.1,30.01,NE,45,0.0,0.0,97,0.00,CLR,,0.00,0.0,WeatherDisplay:10.37,2013-05-21 15:10:00,
2013-05-22 01:15:00,69.8,68.9,30.00,NE,45,0.0,0.0,97,0.00,CLR,,0.00,0.0,WeatherDisplay:10.37,2013-05-21 15:15:00,
2013-05-22 01:20:00,69.8,68.9,30.01,NE,45,0.0,0.0,97,0.00,CLR,,0.00,0.0,WeatherDisplay:10.37,2013-05-21 15:20:00,
2013-05-22 01:25:00,69.8,68.9,30.00,NE,45,0.0,1.0,97,0.00,CLR,,0.00,0.0,WeatherDisplay:10.37,2013-05-21 15:25:00,
2013-05-22 01:30:00,69.8,68.9,30.00,NNE,22,0.0,1.0,97,0.00,CLR,,0.00,0.0,WeatherDisplay:10.37,2013-05-21 15:30:00,
2013-05-22 01:35:00,69.8,68.9,30.00,North,0,0.0,0.0,97,0.00,CLR,,0.00,0.0,WeatherDisplay:10.37,2013-05-21 15:35:00,
2013-05-22 01:40:00,69.8,68.9,30.00,North,0,0.0,0.0,97,0.00,CLR,,0.00,0.0,WeatherDisplay:10.37,2013-05-21 15:40:00,
2013-05-22 01:45:00,69.6,69.0,30.00,North,0,0.0,0.0,98,0.00,CLR,,0.00,0.0,WeatherDisplay:10.37,2013-05-21 15:45:00,
2013-05-22 01:50:00,69.4,68.9,29.99,North,0,0.0,0.0,98,0.00,CLR,,0.00,0.0,WeatherDisplay:10.37,2013-05-21 15:50:00,
2013-05-22 01:55:00,69.4,68.9,29.99,North,0,0.0,0.0,98,0.00,CLR,,0.00,0.0,WeatherDisplay:10.37,2013-05-21 15:55:00,
2013-05-22 02:00:00,69.4,68.9,29.99,North,0,0.0,0.0,98,0.00,CLR,,0.00,0.0,WeatherDisplay:10.37,2013-05-21 16:00:00,
2013-05-22 02:10:00,69.3,68.7,29.99,North,0,0.0,0.0,98,0.00,CLR,,0.00,0.0,WeatherDisplay:10.37,2013-05-21 16:10:00,
2013-05-22 02:15:00,69.1,68.5,29.99,North,0,0.0,0.0,98,0.00,CLR,,0.00,0.0,WeatherDisplay:10.37,2013-05-21 16:15:00,
2013-05-22 02:20:00,69.1,68.5,29.99,North,0,0.0,0.0,98,0.00,CLR,,0.00,0.0,WeatherDisplay:10.37,2013-05-21 16:20:00,
2013-05-22 02:25:00,69.1,68.5,29.99,NNE,18,0.0,0.0,98,0.00,CLR,,0.00,0.0,WeatherDisplay:10.37,2013-05-21 16:25:00,
2013-05-22 02:30:00,69.1,68.5,29.98,NE,41,0.0,0.0,98,0.00,CLR,,0.00,0.0,WeatherDisplay:10.37,2013-05-21 16:30:00,
2013-05-22 02:40:00,69.1,68.5,29.98,NE,45,0.0,0.0,98,0.00,CLR,,0.00,0.0,WeatherDisplay:10.37,2013-05-21 16:40:00,
2013-05-22 02:45:00,68.9,68.3,29.98,NE,45,0.0,0.0,98,0.00,CLR,,0.00,0.0,WeatherDisplay:10.37,2013-05-21 16:45:00,
2013-05-22 02:50:00,68.7,68.1,29.98,NE,45,0.0,0.0,98,0.00,CLR,,0.00,0.0,WeatherDisplay:10.37,2013-05-21 16:50:00,
2013-05-22 02:55:00,68.3,67.7,29.97,NE,45,0.0,0.0,98,0.00,CLR,,0.00,0.0,WeatherDisplay:10.37,2013-05-21 16:55:00,
2013-05-22 03:00:00,68.0,67.4,29.98,NE,45,0.0,0.0,98,0.00,CLR,,0.00,0.0,WeatherDisplay:10.37,2013-05-21 17:00:00,
2013-05-22 03:05:00,67.8,67.5,29.97,NE,45,0.0,0.0,99,0.00,CLR,,0.00,0.0,WeatherDisplay:10.37,2013-05-21 17:05:00,
2013-05-22 03:10:00,68.0,67.4,29.98,NE,45,0.0,0.0,98,0.00,CLR,,0.00,0.0,WeatherDisplay:10.37,2013-05-21 17:10:00,
2013-05-22 03:15:00,68.4,68.1,29.98,NE,45,0.0,0.0,99,0.00,CLR,,0.00,0.0,WeatherDisplay:10.37,2013-05-21 17:15:00,
2013-05-22 03:20:00,68.2,67.9,29.97,NNE,21,0.0,0.0,99,0.00,CLR,,0.00,0.0,WeatherDisplay:10.37,2013-05-21 17:20:00,
2013-05-22 03:25:00,68.0,67.7,29.97,North,0,0.0,0.0,99,0.00,CLR,,0.00,0.0,WeatherDisplay:10.37,2013-05-21 17:25:00,
2013-05-22 03:30:00,68.0,67.7,29.97,North,0,0.0,0.0,99,0.00,CLR,,0.00,0.0,WeatherDisplay:10.37,2013-05-21 17:30:00,
2013-05-22 03:35:00,68.0,67.7,29.97,North,0,0.0,0.0,99,0.00,CLR,,0.00,0.0,WeatherDisplay:10.37,2013-05-21 17:35:00,
2013-05-22 03:40:00,68.0,67.7,29.97,North,0,0.0,0.0,99,0.00,CLR,,0.00,0.0,WeatherDisplay:10.37,2013-05-21 17:40:00,
2013-05-22 03:45:00,68.0,67.7,29.97,North,0,0.0,0.0,99,0.00,CLR,,0.00,0.0,WeatherDisplay:10.37,2013-05-21 17:45:00,
2013-05-22 03:55:00,67.5,67.2,29.97,North,0,0.0,0.0,99,0.00,CLR,,0.00,0.0,WeatherDisplay:10.37,2013-05-21 17:55:00,
2013-05-22 04:00:00,67.3,67.0,29.97,North,0,0.0,0.0,99,0.00,CLR,,0.00,0.0,WeatherDisplay:10.37,2013-05-21 18:00:00,
2013-05-22 04:05:00,66.9,66.6,29.97,North,0,0.0,0.0,99,0.00,CLR,,0.00,0.0,WeatherDisplay:10.37,2013-05-21 18:05:00,
2013-05-22 04:10:00,66.7,66.5,29.97,North,0,0.0,0.0,99,0.00,CLR,,0.00,0.0,WeatherDisplay:10.37,2013-05-21 18:10:00,
2013-05-22 04:15:00,66.4,66.1,29.97,North,0,0.0,0.0,99,0.00,CLR,,0.00,0.0,WeatherDisplay:10.37,2013-05-21 18:15:00,
2013-05-22 04:20:00,66.3,66.0,29.97,NNE,13,0.0,0.0,99,0.00,CLR,,0.00,0.0,WeatherDisplay:10.37,2013-05-21 18:20:00,
2013-05-22 04:25:00,66.2,65.9,29.97,East,101,0.0,0.0,99,0.00,CLR,,0.00,0.0,WeatherDisplay:10.37,2013-05-21 18:25:00,
2013-05-22 04:30:00,66.2,65.9,29.97,SE,135,0.0,0.0,99,0.00,CLR,,0.00,0.0,WeatherDisplay:10.37,2013-05-21 18:30:00,
2013-05-22 04:35:00,65.8,65.6,29.96,SE,135,0.0,0.0,99,0.00,CLR,,0.00,0.0,WeatherDisplay:10.37,2013-05-21 18:35:00,
2013-05-22 04:40:00,65.8,65.6,29.97,SE,135,0.0,0.0,99,0.00,CLR,,0.00,0.0,WeatherDisplay:10.37,2013-05-21 18:40:00,
2013-05-22 04:45:00,65.7,65.4,29.97,SE,135,0.0,0.0,99,0.00,CLR,,0.00,0.0,WeatherDisplay:10.37,2013-05-21 18:45:00,
2013-05-22 04:55:00,65.8,65.6,29.97,SE,135,0.0,0.0,99,0.00,CLR,,0.00,0.0,WeatherDisplay:10.37,2013-05-21 18:55:00,
2013-05-22 05:00:00,65.8,65.6,29.97,SE,135,0.0,0.0,99,0.00,CLR,,0.00,0.0,WeatherDisplay:10.37,2013-05-21 19:00:00,
2013-05-22 05:05:00,65.8,65.6,29.97,SE,135,0.0,0.0,99,0.00,CLR,,0.00,0.0,WeatherDisplay:10.37,2013-05-21 19:05:00,
2013-05-22 05:10:00,65.8,65.5,29.97,SE,135,0.0,0.0,99,0.00,CLR,,0.00,0.0,WeatherDisplay:10.37,2013-05-21 19:10:00,
2013-05-22 05:15:00,65.7,65.4,29.97,SE,135,0.0,0.0,99,0.00,CLR,,0.00,0.0,WeatherDisplay:10.37,2013-05-21 19:15:00,
2013-05-22 05:20:00,65.3,65.0,29.97,SE,135,0.0,0.0,99,0.00,CLR,,0.00,0.0,WeatherDisplay:10.37,2013-05-21 19:20:00,
2013-05-22 05:25:00,65.3,65.0,29.97,SE,135,0.0,0.0,99,0.00,CLR,,0.00,0.0,WeatherDisplay:10.37,2013-05-21 19:25:00,
2013-05-22 05:30:00,65.3,65.0,29.97,SE,135,0.0,0.0,99,0.00,CLR,,0.00,0.0,WeatherDisplay:10.37,2013-05-21 19:30:00,
2013-05-22 05:35:00,65.1,64.8,29.97,SE,135,0.0,0.0,99,0.00,CLR,,0.00,0.0,WeatherDisplay:10.37,2013-05-21 19:35:00,
2013-05-22 05:40:00,64.9,64.7,29.97,SE,135,0.0,1.0,99,0.00,CLR,,0.00,0.0,WeatherDisplay:10.37,2013-05-21 19:40:00,
2013-05-22 05:45:00,64.8,64.5,29.97,SE,135,0.0,0.0,99,0.00,CLR,,0.00,0.0,WeatherDisplay:10.37,2013-05-21 19:45:00,
2013-05-22 05:55:00,64.4,64.1,29.97,SE,135,0.0,0.0,99,0.00,CLR,,0.00,0.0,WeatherDisplay:10.37,2013-05-21 19:55:00,
2013-05-22 06:00:00,64.9,64.6,29.97,SE,135,0.0,0.0,99,0.00,CLR,,0.00,0.0,WeatherDisplay:10.37,2013-05-21 20:00:00,
2013-05-22 06:05:00,64.6,64.3,29.97,SE,135,0.0,0.0,99,0.00,CLR,,0.00,0.0,WeatherDisplay:10.37,2013-05-21 20:05:00,
2013-05-22 06:10:00,64.6,64.3,29.97,SE,135,0.0,0.0,99,0.00,CLR,,0.00,0.0,WeatherDisplay:10.37,2013-05-21 20:10:00,
2013-05-22 06:15:00,64.4,64.1,29.97,SE,135,1.0,3.0,99,0.00,CLR,,0.00,0.0,WeatherDisplay:10.37,2013-05-21 20:15:00,
2013-05-22 06:20:00,64.6,64.3,29.97,SE,135,1.0,2.0,99,0.00,CLR,,0.00,0.0,WeatherDisplay:10.37,2013-05-21 20:20:00,
2013-05-22 06:25:00,64.9,64.7,29.98,SE,135,1.0,2.0,99,0.00,CLR,,0.00,0.0,WeatherDisplay:10.37,2013-05-21 20:25:00,
2013-05-22 06:30:00,64.9,64.7,29.97,SE,135,1.0,2.0,99,0.00,CLR,,0.00,0.0,WeatherDisplay:10.37,2013-05-21 20:30:00,
2013-05-22 06:35:00,64.9,64.7,29.97,SE,135,0.0,2.0,99,0.00,CLR,,0.00,0.0,WeatherDisplay:10.37,2013-05-21 20:35:00,
2013-05-22 06:40:00,64.9,64.7,29.97,SE,135,0.0,2.0,99,0.00,CLR,,0.00,2.4,WeatherDisplay:10.37,2013-05-21 20:40:00,
2013-05-22 06:45:00,64.9,64.7,29.98,SE,135,0.0,1.0,99,0.00,CLR,,0.00,4.0,WeatherDisplay:10.37,2013-05-21 20:45:00,
2013-05-22 06:50:00,65.1,64.8,29.98,SE,135,0.0,0.0,99,0.00,CLR,,0.00,7.2,WeatherDisplay:10.37,2013-05-21 20:50:00,
2013-05-22 06:55:00,65.4,65.1,29.98,SE,135,0.0,2.0,99,0.00,BKN,,0.00,13.3,WeatherDisplay:10.37,2013-05-21 20:55:00,
2013-05-22 07:00:00,65.8,65.6,29.98,SE,135,0.0,2.0,99,0.00,BKN,,0.00,18.8,WeatherDisplay:10.37,2013-05-21 21:00:00,
2013-05-22 07:05:00,65.8,65.6,29.98,SE,135,1.0,2.0,99,0.00,BKN,,0.00,32.9,WeatherDisplay:10.37,2013-05-21 21:05:00,
2013-05-22 07:10:00,66.2,65.9,29.98,SSE,153,2.0,3.0,99,0.00,BKN,,0.00,37.1,WeatherDisplay:10.37,2013-05-21 21:10:00,
2013-05-22 07:15:00,66.5,66.2,29.98,South,172,2.0,3.0,99,0.00,BKN,,0.00,49.8,WeatherDisplay:10.37,2013-05-21 21:15:00,
2013-05-22 07:20:00,66.7,66.5,29.98,South,180,2.0,4.0,99,0.00,SCT,,0.00,47.5,WeatherDisplay:10.37,2013-05-21 21:20:00,
2013-05-22 07:25:00,66.6,66.3,29.99,SSE,163,2.0,4.0,99,0.00,CLR,,0.00,81.2,WeatherDisplay:10.37,2013-05-21 21:25:00,
2013-05-22 07:30:00,66.8,66.5,29.99,SE,144,1.0,4.0,99,0.00,CLR,,0.00,69.0,WeatherDisplay:10.37,2013-05-21 21:30:00,
2013-05-22 07:40:00,67.1,66.8,29.99,SE,135,2.0,5.0,99,0.00,CLR,,0.00,39.0,WeatherDisplay:10.37,2013-05-21 21:40:00,
2013-05-22 07:45:00,68.4,68.1,29.99,SE,131,1.0,4.0,99,0.00,CLR,,0.00,25.0,WeatherDisplay:10.37,2013-05-21 21:45:00,
2013-05-22 07:50:00,69.1,68.8,29.99,SSE,147,2.0,5.0,99,0.00,CLR,,0.00,11.0,WeatherDisplay:10.37,2013-05-21 21:50:00,
2013-05-22 07:55:00,69.9,69.3,29.99,SSE,164,1.0,4.0,98,0.00,CLR,,0.00,300.2,WeatherDisplay:10.37,2013-05-21 21:55:00,
2013-05-22 08:00:00,71.2,70.3,29.99,SSE,151,2.0,3.0,97,0.00,OVC,,0.00,335.5,WeatherDisplay:10.37,2013-05-21 22:00:00,
2013-05-22 08:05:00,72.8,70.6,29.99,SE,135,1.0,3.0,93,0.00,OVC,,0.00,369.1,WeatherDisplay:10.37,2013-05-21 22:05:00,
2013-05-22 08:10:00,74.3,71.2,30.00,SE,135,1.0,3.0,90,0.00,OVC,,0.00,392.6,WeatherDisplay:10.37,2013-05-21 22:10:00,
2013-05-22 08:15:00,75.9,71.1,29.99,SE,135,2.0,3.0,85,0.00,OVC,,0.00,447.6,WeatherDisplay:10.37,2013-05-21 22:15:00,
2013-05-22 08:20:00,75.8,69.9,30.00,SE,135,0.0,3.0,82,0.00,OVC,,0.00,188.2,WeatherDisplay:10.37,2013-05-21 22:20:00,
2013-05-22 08:25:00,74.2,69.1,30.00,SE,135,1.0,3.0,84,0.00,OVC,,0.00,247.4,WeatherDisplay:10.37,2013-05-21 22:25:00,
2013-05-22 08:30:00,73.2,68.4,30.00,SE,135,1.0,3.0,85,0.00,OVC,,0.00,315.0,WeatherDisplay:10.37,2013-05-21 22:30:00,
2013-05-22 08:35:00,73.7,69.2,30.00,SE,135,0.0,2.0,86,0.00,OVC,,0.00,510.5,WeatherDisplay:10.37,2013-05-21 22:35:00,
2013-05-22 08:40:00,75.4,70.2,30.00,SE,135,0.0,2.0,84,0.00,OVC,,0.00,288.5,WeatherDisplay:10.37,2013-05-21 22:40:00,
2013-05-22 08:45:00,75.7,70.5,30.00,SE,135,1.0,3.0,84,0.00,OVC,,0.00,248.4,WeatherDisplay:10.37,2013-05-21 22:45:00,
2013-05-22 08:50:00,75.6,70.5,30.00,SE,135,0.0,2.0,84,0.00,OVC,,0.00,212.6,WeatherDisplay:10.37,2013-05-21 22:50:00,
2013-05-22 08:55:00,75.2,70.0,30.00,ESE,105,1.0,3.0,84,0.00,OVC,,0.00,244.7,WeatherDisplay:10.37,2013-05-21 22:55:00,
2013-05-22 09:00:00,74.4,70.0,30.00,East,90,2.0,4.0,86,0.00,OVC,,0.00,215.4,WeatherDisplay:10.37,2013-05-21 23:00:00,
2013-05-22 09:05:00,74.1,70.0,30.00,East,90,1.0,3.0,87,0.00,OVC,,0.00,235.3,WeatherDisplay:10.37,2013-05-21 23:05:00,
2013-05-22 09:10:00,74.1,70.3,30.00,East,90,1.0,2.0,88,0.00,OVC,,0.00,198.9,WeatherDisplay:10.37,2013-05-21 23:10:00,
2013-05-22 09:15:00,74.5,70.7,30.00,East,90,0.0,2.0,88,0.00,OVC,,0.00,233.0,WeatherDisplay:10.37,2013-05-21 23:15:00,
2013-05-22 09:20:00,75.2,70.7,30.00,ESE,112,1.0,3.0,86,0.00,OVC,,0.00,312.3,WeatherDisplay:10.37,2013-05-21 23:20:00,
2013-05-22 09:25:00,75.6,70.8,30.00,SE,135,1.0,3.0,85,0.00,OVC,,0.00,345.7,WeatherDisplay:10.37,2013-05-21 23:25:00,
2013-05-22 09:30:00,76.6,71.8,30.00,SE,135,0.0,2.0,85,0.00,OVC,,0.00,703.8,WeatherDisplay:10.37,2013-05-21 23:30:00,
2013-05-22 09:35:00,78.1,71.4,30.00,SSE,159,3.0,5.0,80,0.00,OVC,,0.00,388.9,WeatherDisplay:10.37,2013-05-21 23:35:00,
2013-05-22 09:40:00,77.2,70.5,30.00,SSE,152,2.0,5.0,80,0.00,OVC,,0.00,505.0,WeatherDisplay:10.37,2013-05-21 23:40:00,
2013-05-22 09:45:00,78.8,70.6,30.00,SE,145,2.0,5.0,76,0.00,OVC,,0.00,413.6,WeatherDisplay:10.37,2013-05-21 23:45:00,
2013-05-22 09:50:00,79.5,70.1,30.00,SE,141,3.0,5.0,73,0.00,OVC,,0.00,441.6,WeatherDisplay:10.37,2013-05-21 23:50:00,
2013-05-22 09:55:00,79.2,70.2,30.00,SE,146,1.0,6.0,74,0.00,OVC,,0.00,752.2,WeatherDisplay:10.37,2013-05-21 23:55:00,
2013-05-22 10:00:00,79.7,69.9,30.00,ESE,112,2.0,5.0,72,0.00,OVC,,0.00,566.4,WeatherDisplay:10.37,2013-05-22 00:00:00,
2013-05-22 10:05:00,80.1,70.6,29.99,ENE,74,2.0,4.0,73,0.00,OVC,,0.00,503.3,WeatherDisplay:10.37,2013-05-22 00:05:00,
2013-05-22 10:15:00,80.1,70.2,29.99,NNE,15,1.0,4.0,72,0.00,OVC,,0.00,523.5,WeatherDisplay:10.37,2013-05-22 00:15:00,
2013-05-22 10:20:00,81.0,70.7,29.99,North,0,0.0,3.0,71,0.00,OVC,,0.00,423.9,WeatherDisplay:10.37,2013-05-22 00:20:00,
2013-05-22 10:25:00,81.3,70.2,29.99,West,266,1.0,3.0,69,0.00,OVC,,0.00,646.2,WeatherDisplay:10.37,2013-05-22 00:25:00,
2013-05-22 10:30:00,81.7,70.5,29.99,SW,230,1.0,3.0,69,0.00,OVC,,0.00,684.3,WeatherDisplay:10.37,2013-05-22 00:30:00,
2013-05-22 10:35:00,81.3,69.8,29.98,ENE,75,2.0,7.0,68,0.00,OVC,,0.00,1383.3,WeatherDisplay:10.37,2013-05-22 00:35:00,
2013-05-22 10:40:00,83.6,71.0,29.98,East,85,1.0,6.0,66,0.00,OVC,,0.00,1303.9,WeatherDisplay:10.37,2013-05-22 00:40:00,
2013-05-22 10:45:00,86.2,70.2,29.98,SE,135,1.0,5.0,59,0.00,OVC,,0.00,1354.0,WeatherDisplay:10.37,2013-05-22 00:45:00,
2013-05-22 10:50:00,86.7,69.7,29.98,ENE,76,2.0,5.0,57,0.00,OVC,,0.00,1398.8,WeatherDisplay:10.37,2013-05-22 00:50:00,
2013-05-22 10:55:00,84.9,70.0,29.98,East,89,7.0,9.0,61,0.00,OVC,,0.00,1412.9,WeatherDisplay:10.37,2013-05-22 00:55:00,
2013-05-22 11:00:00,82.0,70.0,29.98,ESE,118,5.0,9.0,67,0.00,OVC,,0.00,823.2,WeatherDisplay:10.37,2013-05-22 01:00:00,
2013-05-22 11:05:00,81.1,69.5,29.98,ESE,117,3.0,8.0,68,0.00,OVC,,0.00,525.7,WeatherDisplay:10.37,2013-05-22 01:05:00,
2013-05-22 11:10:00,81.1,70.0,29.98,East,86,1.0,6.0,69,0.00,OVC,,0.00,432.9,WeatherDisplay:10.37,2013-05-22 01:10:00,
2013-05-22 11:15:00,82.4,70.3,29.98,NE,36,1.0,3.0,67,0.00,OVC,,0.00,540.2,WeatherDisplay:10.37,2013-05-22 01:15:00,
2013-05-22 11:20:00,84.6,71.1,29.98,NW,320,2.0,4.0,64,0.00,OVC,,0.00,1055.8,WeatherDisplay:10.37,2013-05-22 01:20:00,
2013-05-22 11:25:00,83.3,70.3,29.98,WNW,303,1.0,5.0,65,0.00,OVC,,0.00,1155.5,WeatherDisplay:10.37,2013-05-22 01:25:00,
2013-05-22 11:30:00,82.0,70.0,29.97,West,280,2.0,5.0,67,0.00,OVC,,0.00,1365.4,WeatherDisplay:10.37,2013-05-22 01:30:00,
2013-05-22 11:35:00,82.9,70.4,29.97,WSW,258,2.0,6.0,66,0.00,OVC,,0.00,1074.6,WeatherDisplay:10.37,2013-05-22 01:35:00,
2013-05-22 11:40:00,83.7,70.6,29.97,South,188,3.0,5.0,65,0.00,OVC,,0.00,829.7,WeatherDisplay:10.37,2013-05-22 01:40:00,
2013-05-22 11:45:00,83.9,70.9,29.97,South,172,1.0,5.0,65,0.00,OVC,,0.00,767.9,WeatherDisplay:10.37,2013-05-22 01:45:00,
2013-05-22 11:50:00,86.5,70.5,29.96,SSE,155,2.0,7.0,59,0.00,OVC,,0.00,1432.4,WeatherDisplay:10.37,2013-05-22 01:50:00,
2013-05-22 11:55:00,85.6,70.2,29.96,SE,125,2.0,7.0,60,0.00,OVC,,0.00,1162.8,WeatherDisplay:10.37,2013-05-22 01:55:00,
2013-05-22 12:00:00,86.2,71.2,29.96,East,100,1.0,6.0,61,0.00,OVC,,0.00,1541.7,WeatherDisplay:10.37,2013-05-22 02:00:00,
2013-05-22 12:05:00,87.1,71.0,29.96,NNE,28,3.0,8.0,59,0.00,OVC,,0.00,1493.0,WeatherDisplay:10.37,2013-05-22 02:05:00,
2013-05-22 12:10:00,86.9,70.3,29.96,ENE,74,5.0,8.0,58,0.00,OVC,,0.00,603.8,WeatherDisplay:10.37,2013-05-22 02:10:00,
2013-05-22 12:15:00,83.9,70.4,29.96,ENE,78,5.0,8.0,64,0.00,OVC,,0.00,446.1,WeatherDisplay:10.37,2013-05-22 02:15:00,
2013-05-22 12:20:00,82.9,70.4,29.95,NE,42,6.0,10.0,66,0.00,OVC,,0.00,662.3,WeatherDisplay:10.37,2013-05-22 02:20:00,
2013-05-22 12:25:00,83.1,70.5,29.95,North,11,5.0,9.0,66,0.00,OVC,,0.00,324.4,WeatherDisplay:10.37,2013-05-22 02:25:00,
2013-05-22 12:30:00,81.8,69.7,29.95,North,357,5.0,8.0,67,0.00,OVC,,0.00,257.5,WeatherDisplay:10.37,2013-05-22 02:30:00,
2013-05-22 12:35:00,81.4,70.2,29.95,NNW,337,6.0,9.0,69,0.00,OVC,,0.00,1293.4,WeatherDisplay:10.37,2013-05-22 02:35:00,
2013-05-22 12:40:00,83.7,71.2,29.95,North,358,7.0,10.0,66,0.00,OVC,,0.00,1353.0,WeatherDisplay:10.37,2013-05-22 02:40:00,
2013-05-22 12:45:00,84.2,70.7,29.95,NNE,26,7.0,11.0,64,0.00,OVC,,0.00,1480.6,WeatherDisplay:10.37,2013-05-22 02:45:00,
2013-05-22 12:50:00,84.8,70.8,29.95,NE,35,2.0,11.0,63,0.00,OVC,,0.00,332.6,WeatherDisplay:10.37,2013-05-22 02:50:00,
2013-05-22 12:55:00,84.2,71.2,29.94,NE,37,6.0,10.0,65,0.00,OVC,,0.00,286.1,WeatherDisplay:10.37,2013-05-22 02:55:00,
2013-05-22 13:00:00,81.6,70.1,29.94,NE,44,6.0,9.0,68,0.00,OVC,,0.00,850.4,WeatherDisplay:10.37,2013-05-22 03:00:00,
2013-05-22 13:05:00,81.7,71.4,29.94,NE,48,8.0,12.0,71,0.00,OVC,,0.00,328.6,WeatherDisplay:10.37,2013-05-22 03:05:00,
2013-05-22 13:10:00,81.0,70.7,29.93,NE,49,5.0,12.0,71,0.00,OVC,,0.00,978.0,WeatherDisplay:10.37,2013-05-22 03:10:00,
2013-05-22 13:15:00,81.8,71.4,29.93,NE,46,6.0,10.0,71,0.00,OVC,,0.00,365.9,WeatherDisplay:10.37,2013-05-22 03:15:00,
2013-05-22 13:20:00,82.0,70.8,29.92,NE,41,5.0,9.0,69,0.00,OVC,,0.00,1232.7,WeatherDisplay:10.37,2013-05-22 03:20:00,
2013-05-22 13:25:00,84.7,71.6,29.93,NE,47,6.0,9.0,65,0.00,OVC,,0.00,1206.3,WeatherDisplay:10.37,2013-05-22 03:25:00,
2013-05-22 13:30:00,85.0,71.0,29.92,NE,50,6.0,10.0,63,0.00,OVC,,0.00,1357.6,WeatherDisplay:10.37,2013-05-22 03:30:00,
2013-05-22 13:35:00,86.0,71.0,29.92,NE,43,6.0,11.0,61,0.00,OVC,,0.00,1306.9,WeatherDisplay:10.37,2013-05-22 03:35:00,
2013-05-22 13:40:00,85.8,70.3,29.91,NNE,16,3.0,12.0,60,0.00,OVC,,0.00,340.4,WeatherDisplay:10.37,2013-05-22 03:40:00,
2013-05-22 13:45:00,84.6,71.0,29.91,NNE,12,10.0,13.0,64,0.00,OVC,,0.00,1269.4,WeatherDisplay:10.37,2013-05-22 03:45:00,
2013-05-22 13:50:00,84.7,71.2,29.91,NNE,32,7.0,12.0,64,0.00,OVC,,0.00,1078.4,WeatherDisplay:10.37,2013-05-22 03:50:00,
2013-05-22 13:55:00,84.4,70.9,29.91,NNE,15,6.0,10.0,64,0.00,OVC,,0.00,1137.4,WeatherDisplay:10.37,2013-05-22 03:55:00,
2013-05-22 14:00:00,85.5,71.0,29.91,NNE,19,3.0,8.0,62,0.00,OVC,,0.00,536.5,WeatherDisplay:10.37,2013-05-22 04:00:00,
2013-05-22 14:05:00,85.5,71.0,29.91,NE,49,3.0,8.0,62,0.00,OVC,,0.00,1062.6,WeatherDisplay:10.37,2013-05-22 04:05:00,
2013-05-22 14:10:00,85.4,70.9,29.91,NE,56,6.0,8.0,62,0.00,OVC,,0.00,362.9,WeatherDisplay:10.37,2013-05-22 04:10:00,
2013-05-22 14:15:00,84.9,70.9,29.91,NE,52,6.0,7.0,63,0.00,OVC,,0.00,1121.6,WeatherDisplay:10.37,2013-05-22 04:15:00,
2013-05-22 14:20:00,86.0,70.0,29.91,NE,45,6.0,8.0,59,0.00,OVC,,0.00,884.4,WeatherDisplay:10.37,2013-05-22 04:20:00,
2013-05-22 14:25:00,86.4,70.8,29.90,NE,45,5.0,8.0,60,0.00,OVC,,0.00,994.1,WeatherDisplay:10.37,2013-05-22 04:25:00,
2013-05-22 14:30:00,85.5,71.0,29.90,NE,44,9.0,13.0,62,0.00,OVC,,0.00,1028.7,WeatherDisplay:10.37,2013-05-22 04:30:00,
2013-05-22 14:35:00,85.1,71.5,29.91,NE,43,8.0,13.0,64,0.00,OVC,,0.00,1107.0,WeatherDisplay:10.37,2013-05-22 04:35:00,
2013-05-22 14:40:00,84.9,71.4,29.90,NE,42,8.0,14.0,64,0.00,OVC,,0.00,358.7,WeatherDisplay:10.37,2013-05-22 04:40:00,
2013-05-22 14:45:00,82.8,70.3,29.90,NNE,20,9.0,14.0,66,0.00,OVC,,0.00,843.0,WeatherDisplay:10.37,2013-05-22 04:45:00,
2013-05-22 14:50:00,83.6,71.9,29.90,NNE,31,7.0,13.0,68,0.00,OVC,,0.00,808.6,WeatherDisplay:10.37,2013-05-22 04:50:00,
2013-05-22 14:55:00,83.5,71.4,29.90,NE,50,7.0,14.0,67,0.00,OVC,,0.00,803.6,WeatherDisplay:10.37,2013-05-22 04:55:00,
2013-05-22 15:00:00,83.2,71.9,29.90,NE,39,8.0,13.0,69,0.00,OVC,,0.00,893.3,WeatherDisplay:10.37,2013-05-22 05:00:00,
2013-05-22 15:05:00,83.8,72.1,29.90,NE,42,5.0,11.0,68,0.00,OVC,,0.00,849.2,WeatherDisplay:10.37,2013-05-22 05:05:00,
2013-05-22 15:10:00,83.5,71.4,29.90,NE,50,8.0,14.0,67,0.00,OVC,,0.00,765.8,WeatherDisplay:10.37,2013-05-22 05:10:00,
2013-05-22 15:15:00,83.6,71.9,29.90,NE,43,9.0,14.0,68,0.00,OVC,,0.00,809.1,WeatherDisplay:10.37,2013-05-22 05:15:00,
2013-05-22 15:20:00,83.3,72.0,29.90,NE,35,7.0,14.0,69,0.00,OVC,,0.00,773.6,WeatherDisplay:10.37,2013-05-22 05:20:00,
2013-05-22 15:25:00,82.9,71.3,29.90,NE,36,12.0,15.0,68,0.00,OVC,,0.00,753.5,WeatherDisplay:10.37,2013-05-22 05:25:00,
2013-05-22 15:30:00,82.0,71.7,29.90,NE,45,9.0,13.0,71,0.00,OVC,,0.00,718.4,WeatherDisplay:10.37,2013-05-22 05:30:00,
2013-05-22 15:35:00,82.3,71.1,29.90,NE,39,8.0,15.0,69,0.00,OVC,,0.00,700.9,WeatherDisplay:10.37,2013-05-22 05:35:00,
2013-05-22 15:40:00,82.6,71.4,29.90,NE,46,9.0,13.0,69,0.00,OVC,,0.00,682.0,WeatherDisplay:10.37,2013-05-22 05:40:00,
2013-05-22 15:45:00,82.4,70.7,29.90,NNE,31,9.0,13.0,68,0.00,OVC,,0.00,532.7,WeatherDisplay:10.37,2013-05-22 05:45:00,
2013-05-22 15:50:00,81.7,70.9,29.90,NNE,31,8.0,13.0,70,0.00,OVC,,0.00,644.1,WeatherDisplay:10.37,2013-05-22 05:50:00,
2013-05-22 15:55:00,81.9,71.1,29.90,NE,54,5.0,11.0,70,0.00,OVC,,0.00,627.8,WeatherDisplay:10.37,2013-05-22 05:55:00,
2013-05-22 16:00:00,82.0,70.9,29.90,ENE,61,9.0,13.0,69,0.00,CLR,,0.00,612.7,WeatherDisplay:10.37,2013-05-22 06:00:00,
2013-05-22 16:05:00,81.5,70.8,29.90,NE,46,8.0,13.0,70,0.00,CLR,,0.00,541.3,WeatherDisplay:10.37,2013-05-22 06:05:00,
2013-05-22 16:10:00,81.3,70.6,29.90,NE,40,8.0,12.0,70,0.00,CLR,,0.00,506.0,WeatherDisplay:10.37,2013-05-22 06:10:00,
2013-05-22 16:15:00,81.1,70.8,29.90,NNE,31,8.0,13.0,71,0.00,CLR,,0.00,467.4,WeatherDisplay:10.37,2013-05-22 06:15:00,
2013-05-22 16:20:00,81.1,70.4,29.90,NNE,32,6.0,11.0,70,0.00,CLR,,0.00,435.3,WeatherDisplay:10.37,2013-05-22 06:20:00,
2013-05-22 16:25:00,81.1,70.8,29.90,NE,46,8.0,12.0,71,0.00,CLR,,0.00,389.2,WeatherDisplay:10.37,2013-05-22 06:25:00,
2013-05-22 16:30:00,79.8,70.4,29.91,NE,36,8.0,11.0,73,0.00,CLR,,0.00,89.0,WeatherDisplay:10.37,2013-05-22 06:30:00,
2013-05-22 16:35:00,79.1,70.1,29.91,NNE,21,7.0,10.0,74,0.00,CLR,,0.00,358.9,WeatherDisplay:10.37,2013-05-22 06:35:00,
2013-05-22 16:40:00,79.3,70.6,29.91,NNE,28,5.0,10.0,75,0.00,CLR,,0.00,332.7,WeatherDisplay:10.37,2013-05-22 06:40:00,
2013-05-22 16:45:00,79.5,70.9,29.91,NE,43,6.0,11.0,75,0.00,CLR,,0.00,297.5,WeatherDisplay:10.37,2013-05-22 06:45:00,
2013-05-22 16:50:00,79.7,71.1,29.91,NE,49,6.0,9.0,75,0.00,CLR,,0.00,192.9,WeatherDisplay:10.37,2013-05-22 06:50:00,
2013-05-22 16:55:00,79.2,70.6,29.91,ENE,62,7.0,10.0,75,0.00,CLR,,0.00,178.9,WeatherDisplay:10.37,2013-05-22 06:55:00,
2013-05-22 17:00:00,79.0,70.8,29.91,East,79,6.0,8.0,76,0.00,CLR,,0.00,191.2,WeatherDisplay:10.37,2013-05-22 07:00:00,
2013-05-22 17:05:00,78.8,71.0,29.91,ENE,71,7.0,9.0,77,0.00,CLR,,0.00,136.0,WeatherDisplay:10.37,2013-05-22 07:05:00,
2013-05-22 17:10:00,78.4,71.0,29.91,NE,56,7.0,11.0,78,0.00,CLR,,0.00,115.1,WeatherDisplay:10.37,2013-05-22 07:10:00,
2013-05-22 17:15:00,78.3,71.3,29.91,NE,47,6.0,9.0,79,0.00,CLR,,0.00,98.9,WeatherDisplay:10.37,2013-05-22 07:15:00,
2013-05-22 17:20:00,77.7,71.1,29.91,NE,42,6.0,12.0,80,0.00,CLR,,0.00,89.7,WeatherDisplay:10.37,2013-05-22 07:20:00,
2013-05-22 17:25:00,77.5,71.2,29.91,NE,45,6.0,9.0,81,0.00,CLR,,0.00,71.9,WeatherDisplay:10.37,2013-05-22 07:25:00,
2013-05-22 17:30:00,77.2,70.9,29.91,NE,45,5.0,8.0,81,0.00,CLR,,0.00,29.0,WeatherDisplay:10.37,2013-05-22 07:30:00,
2013-05-22 17:35:00,76.2,70.7,29.92,NE,52,9.0,11.0,83,0.00,CLR,,0.00,27.9,WeatherDisplay:10.37,2013-05-22 07:35:00,
2013-05-22 17:40:00,75.5,70.3,29.92,NE,49,7.0,11.0,84,0.00,CLR,,0.00,12.8,WeatherDisplay:10.37,2013-05-22 07:40:00,
2013-05-22 17:45:00,75.0,70.5,29.92,NE,45,5.0,10.0,86,0.00,CLR,,0.00,8.9,WeatherDisplay:10.37,2013-05-22 07:45:00,
2013-05-22 17:50:00,74.6,70.4,29.92,NE,45,6.0,8.0,87,0.00,CLR,,0.00,4.7,WeatherDisplay:10.37,2013-05-22 07:50:00,
2013-05-22 17:55:00,74.1,70.0,29.92,NE,43,5.0,8.0,87,0.00,CLR,,0.00,1.3,WeatherDisplay:10.37,2013-05-22 07:55:00,
2013-05-22 18:00:00,73.7,69.6,29.92,NE,43,3.0,8.0,87,0.00,CLR,,0.00,0.0,WeatherDisplay:10.37,2013-05-22 08:00:00,
2013-05-22 18:05:00,73.4,69.3,29.93,NE,45,2.0,7.0,87,0.00,CLR,,0.00,0.0,WeatherDisplay:10.37,2013-05-22 08:05:00,
2013-05-22 18:10:00,73.2,69.1,29.93,NE,45,3.0,6.0,87,0.00,CLR,,0.00,0.0,WeatherDisplay:10.37,2013-05-22 08:10:00,
2013-05-22 18:15:00,72.9,68.8,29.93,NE,45,2.0,5.0,87,0.00,CLR,,0.00,0.0,WeatherDisplay:10.37,2013-05-22 08:15:00,
2013-05-22 18:20:00,72.7,68.6,29.93,NE,45,1.0,5.0,87,0.00,CLR,,0.00,0.0,WeatherDisplay:10.37,2013-05-22 08:20:00,
2013-05-22 18:25:00,72.3,68.6,29.93,NE,37,3.0,6.0,88,0.00,CLR,,0.00,0.0,WeatherDisplay:10.37,2013-05-22 08:25:00,
2013-05-22 18:30:00,72.3,68.6,29.93,NE,39,3.0,6.0,88,0.00,CLR,,0.00,0.0,WeatherDisplay:10.37,2013-05-22 08:30:00,
2013-05-22 18:35:00,72.3,68.6,29.93,NE,41,5.0,6.0,88,0.00,CLR,,0.00,0.0,WeatherDisplay:10.37,2013-05-22 08:35:00,
2013-05-22 18:40:00,72.1,68.7,29.93,NE,53,3.0,6.0,89,0.00,CLR,,0.00,0.0,WeatherDisplay:10.37,2013-05-22 08:40:00,
2013-05-22 18:45:00,71.9,68.5,29.94,East,80,3.0,6.0,89,0.00,CLR,,0.00,0.0,WeatherDisplay:10.37,2013-05-22 08:45:00,
2013-05-22 18:50:00,71.7,68.6,29.93,East,90,3.0,6.0,90,0.00,CLR,,0.00,0.0,WeatherDisplay:10.37,2013-05-22 08:50:00,
2013-05-22 18:55:00,71.4,68.7,29.93,East,90,2.0,6.0,91,0.00,CLR,,0.00,0.0,WeatherDisplay:10.37,2013-05-22 08:55:00,
2013-05-22 19:00:00,71.2,68.8,29.94,East,90,2.0,4.0,92,0.00,CLR,,0.00,0.0,WeatherDisplay:10.37,2013-05-22 09:00:00,
2013-05-22 19:05:00,71.1,68.7,29.94,East,90,1.0,3.0,92,0.00,CLR,,0.00,0.0,WeatherDisplay:10.37,2013-05-22 09:05:00,
2013-05-22 19:10:00,70.9,68.4,29.94,East,90,1.0,2.0,92,0.00,CLR,,0.00,0.0,WeatherDisplay:10.37,2013-05-22 09:10:00,
2013-05-22 19:15:00,70.9,68.8,29.94,East,90,2.0,3.0,93,0.00,CLR,,0.00,0.0,WeatherDisplay:10.37,2013-05-22 09:15:00,
2013-05-22 19:20:00,70.7,68.6,29.95,East,90,2.0,5.0,93,0.00,CLR,,0.00,0.0,WeatherDisplay:10.37,2013-05-22 09:20:00,
2013-05-22 19:25:00,70.5,68.4,29.95,East,90,1.0,3.0,93,0.00,CLR,,0.00,0.0,WeatherDisplay:10.37,2013-05-22 09:25:00,
2013-05-22 19:30:00,70.3,68.5,29.95,East,90,0.0,2.0,94,0.00,CLR,,0.00,0.0,WeatherDisplay:10.37,2013-05-22 09:30:00,
2013-05-22 19:35:00,70.3,68.5,29.95,East,90,0.0,2.0,94,0.00,CLR,,0.00,0.0,WeatherDisplay:10.37,2013-05-22 09:35:00,
2013-05-22 19:40:00,70.3,68.5,29.95,East,90,0.0,2.0,94,0.00,CLR,,0.00,0.0,WeatherDisplay:10.37,2013-05-22 09:40:00,
2013-05-22 19:45:00,70.3,68.5,29.95,East,90,0.0,1.0,94,0.00,CLR,,0.00,0.0,WeatherDisplay:10.37,2013-05-22 09:45:00,
2013-05-22 19:50:00,70.5,68.7,29.96,East,90,0.0,1.0,94,0.00,CLR,,0.00,0.0,WeatherDisplay:10.37,2013-05-22 09:50:00,
2013-05-22 19:55:00,70.7,68.9,29.96,East,90,0.0,0.0,94,0.00,CLR,,0.00,0.0,WeatherDisplay:10.37,2013-05-22 09:55:00,
2013-05-22 20:00:00,70.6,68.8,29.96,East,90,0.0,0.0,94,0.00,CLR,,0.00,0.0,WeatherDisplay:10.37,2013-05-22 10:00:00,
2013-05-22 20:05:00,70.7,68.8,29.96,East,90,0.0,0.0,94,0.00,CLR,,0.00,0.0,WeatherDisplay:10.37,2013-05-22 10:05:00,
2013-05-22 20:10:00,70.7,68.9,29.97,East,90,0.0,0.0,94,0.00,CLR,,0.00,0.0,WeatherDisplay:10.37,2013-05-22 10:10:00,
2013-05-22 20:15:00,70.5,68.7,29.96,East,90,0.0,0.0,94,0.00,CLR,,0.00,0.0,WeatherDisplay:10.37,2013-05-22 10:15:00,
2013-05-22 20:20:00,70.6,68.7,29.97,East,90,0.0,0.0,94,0.00,CLR,,0.00,0.0,WeatherDisplay:10.37,2013-05-22 10:20:00,
2013-05-22 20:25:00,70.8,69.0,29.97,East,90,0.0,0.0,94,0.00,CLR,,0.00,0.0,WeatherDisplay:10.37,2013-05-22 10:25:00,
2013-05-22 20:30:00,70.9,69.4,29.97,East,90,1.0,2.0,95,0.00,CLR,,0.00,0.0,WeatherDisplay:10.37,2013-05-22 10:30:00,
2013-05-22 20:35:00,70.9,69.4,29.97,East,90,0.0,1.0,95,0.00,CLR,,0.00,0.0,WeatherDisplay:10.37,2013-05-22 10:35:00,
2013-05-22 20:45:00,71.1,69.6,29.97,East,90,0.0,2.0,95,0.00,CLR,,0.00,0.0,WeatherDisplay:10.37,2013-05-22 10:45:00,
2013-05-22 20:50:00,71.2,69.7,29.97,East,90,0.0,3.0,95,0.00,CLR,,0.00,0.0,WeatherDisplay:10.37,2013-05-22 10:50:00,
2013-05-22 20:55:00,71.2,69.7,29.97,East,90,0.0,0.0,95,0.00,CLR,,0.00,0.0,WeatherDisplay:10.37,2013-05-22 10:55:00,
2013-05-22 21:00:00,71.4,69.6,29.97,East,90,1.0,2.0,94,0.00,CLR,,0.00,0.0,WeatherDisplay:10.37,2013-05-22 11:00:00,
2013-05-22 21:05:00,71.4,69.6,29.97,East,90,2.0,4.0,94,0.00,CLR,,0.00,0.0,WeatherDisplay:10.37,2013-05-22 11:05:00,
2013-05-22 21:10:00,71.4,69.6,29.97,East,90,2.0,3.0,94,0.00,CLR,,0.00,0.0,WeatherDisplay:10.37,2013-05-22 11:10:00,
2013-05-22 21:15:00,71.6,69.5,29.97,NE,55,2.0,4.0,93,0.00,CLR,,0.00,0.0,WeatherDisplay:10.37,2013-05-22 11:15:00,
2013-05-22 21:20:00,71.6,69.5,29.97,NNE,16,0.0,2.0,93,0.00,CLR,,0.00,0.0,WeatherDisplay:10.37,2013-05-22 11:20:00,
2013-05-22 21:25:00,71.6,69.5,29.97,North,0,0.0,1.0,93,0.00,CLR,,0.00,0.0,WeatherDisplay:10.37,2013-05-22 11:25:00,
2013-05-22 21:35:00,71.4,69.6,29.97,North,0,0.0,0.0,94,0.00,CLR,,0.00,0.0,WeatherDisplay:10.37,2013-05-22 11:35:00,
2013-05-22 21:40:00,71.4,69.6,29.97,North,0,0.0,0.0,94,0.00,CLR,,0.00,0.0,WeatherDisplay:10.37,2013-05-22 11:40:00,
2013-05-22 21:45:00,71.5,69.7,29.97,North,0,0.0,0.0,94,0.00,CLR,,0.00,0.0,WeatherDisplay:10.37,2013-05-22 11:45:00,
2013-05-22 21:50:00,71.6,69.5,29.97,North,0,0.0,0.0,93,0.00,CLR,,0.00,0.0,WeatherDisplay:10.37,2013-05-22 11:50:00,
2013-05-22 21:55:00,71.6,69.5,29.97,North,0,0.0,0.0,93,0.00,CLR,,0.00,0.0,WeatherDisplay:10.37,2013-05-22 11:55:00,
2013-05-22 22:00:00,71.6,69.5,29.97,North,0,0.0,0.0,93,0.00,CLR,,0.00,0.0,WeatherDisplay:10.37,2013-05-22 12:00:00,
2013-05-22 22:05:00,71.8,69.6,29.97,North,0,0.0,0.0,93,0.00,CLR,,0.00,0.0,WeatherDisplay:10.37,2013-05-22 12:05:00,
2013-05-22 22:10:00,71.8,70.0,29.96,North,0,0.0,0.0,94,0.00,CLR,,0.00,0.0,WeatherDisplay:10.37,2013-05-22 12:10:00,
2013-05-22 22:15:00,71.8,70.0,29.97,North,0,0.0,0.0,94,0.00,CLR,,0.00,0.0,WeatherDisplay:10.37,2013-05-22 12:15:00,
2013-05-22 22:20:00,71.8,70.0,29.97,North,0,2.0,3.0,94,0.00,CLR,,0.00,0.0,WeatherDisplay:10.37,2013-05-22 12:20:00,
2013-05-22 22:25:00,71.8,70.0,29.97,North,0,0.0,3.0,94,0.00,CLR,,0.00,0.0,WeatherDisplay:10.37,2013-05-22 12:25:00,
2013-05-22 22:30:00,71.8,70.0,29.97,North,0,0.0,0.0,94,0.00,CLR,,0.00,0.0,WeatherDisplay:10.37,2013-05-22 12:30:00,
2013-05-22 22:35:00,71.8,70.0,29.97,North,0,0.0,0.0,94,0.00,CLR,,0.00,0.0,WeatherDisplay:10.37,2013-05-22 12:35:00,
2013-05-22 22:40:00,71.8,70.0,29.97,North,0,0.0,0.0,94,0.00,CLR,,0.00,0.0,WeatherDisplay:10.37,2013-05-22 12:40:00,
2013-05-22 22:45:00,72.0,70.1,29.97,North,0,0.0,0.0,94,0.00,CLR,,0.00,0.0,WeatherDisplay:10.37,2013-05-22 12:45:00,
2013-05-22 22:50:00,71.8,70.0,29.97,North,0,0.0,0.0,94,0.00,CLR,,0.00,0.0,WeatherDisplay:10.37,2013-05-22 12:50:00,
2013-05-22 22:55:00,71.6,69.8,29.97,North,0,0.0,0.0,94,0.00,CLR,,0.00,0.0,WeatherDisplay:10.37,2013-05-22 12:55:00,
2013-05-22 23:00:00,71.6,69.8,29.96,North,0,0.0,1.0,94,0.00,CLR,,0.00,0.0,WeatherDisplay:10.37,2013-05-22 13:00:00,
2013-05-22 23:05:00,71.8,70.0,29.96,North,0,0.0,0.0,94,0.00,CLR,,0.00,0.0,WeatherDisplay:10.37,2013-05-22 13:05:00,
2013-05-22 23:10:00,71.6,69.8,29.96,North,0,0.0,0.0,94,0.00,CLR,,0.00,0.0,WeatherDisplay:10.37,2013-05-22 13:10:00,
2013-05-22 23:15:00,71.6,69.8,29.96,North,0,0.0,0.0,94,0.00,CLR,,0.00,0.0,WeatherDisplay:10.37,2013-05-22 13:15:00,
2013-05-22 23:20:00,71.4,69.9,29.96,North,0,0.0,0.0,95,0.00,CLR,,0.00,0.0,WeatherDisplay:10.37,2013-05-22 13:20:00,
2013-05-22 23:25:00,71.2,69.7,29.96,North,0,0.0,0.0,95,0.00,CLR,,0.00,0.0,WeatherDisplay:10.37,2013-05-22 13:25:00,
2013-05-22 23:30:00,71.4,69.9,29.96,North,0,0.0,0.0,95,0.00,CLR,,0.00,0.0,WeatherDisplay:10.37,2013-05-22 13:30:00,
2013-05-22 23:35:00,71.2,69.7,29.95,North,0,0.0,0.0,95,0.00,CLR,,0.00,0.0,WeatherDisplay:10.37,2013-05-22 13:35:00,
2013-05-22 23:40:00,71.2,70.0,29.95,North,0,0.0,2.0,96,0.00,CLR,,0.00,0.0,WeatherDisplay:10.37,2013-05-22 13:40:00,
2013-05-22 23:45:00,71.4,70.2,29.95,North,0,0.0,2.0,96,0.00,CLR,,0.00,0.0,WeatherDisplay:10.37,2013-05-22 13:45:00,
2013-05-22 23:50:00,71.4,70.2,29.95,North,0,0.0,0.0,96,0.00,CLR,,0.00,0.0,WeatherDisplay:10.37,2013-05-22 13:50:00,
2013-05-22 23:55:00,71.1,69.9,29.95,North,0,0.0,0.0,96,0.00,CLR,,0.00,0.0,WeatherDisplay:10.37,2013-05-22 13:55:00,